Location: Unspecified
(0.0000°N, 0.0000°E)
Time: 17:19:35
(UTC+00:00)

STARLINK 1022 - Pass Details

Date: 20 January 2020
Orbit: 549 x 551 km, 53.0° (Epoch: 23 January)

Event Time Altitude Azimuth Distance (km) Brightness Sun altitude
Rises 04:49:16 0° 193° (SSW) 2,728 7.3 -19.1°
Reaches altitude 10° 04:51:51 10° 179° (S) 1,829 6.6 -18.5°
Maximum altitude 04:55:13 24° 124° (SE) 1,177 6.2 -17.7°
Drops below altitude 10° 04:58:33 10° 70° (ENE) 1,818 7.0 -16.9°
Sets 05:01:06 0° 56° (NE) 2,706 7.7 -16.3°
